SCP
0 0 0 0 0 0 0 0 0 0 0 0 0 0 0 0 0 0 0 0 0 0 0 0 0 0 0 0 0 0 0 0 0 0 0 0 0 0 0 0 0 0 0
0 0 0 0 0 0 0 0 0 0 0 0 0 0 0 0 0 0 0 0 0 0 0 0 0 0 0 0 0 0 0 0 0 0 0 0 0 0 0 0 0 0 0
0 0 0 0 0 0 0 0 0 0 0 0 0 0 0 0 0 0 0 0 0 0 0 0 0 0 0 0 0 0 0 0 0 0 0 0 0 0 0 0 0 0 0
0 0 0 0 0 0 0 0 0 0 0 0 0 0 0 0 0 0 0 0 0 0 0 0 0 0 0 0 0 0 0 0 0 0 0 0 0 0 0 0 0 0 0
0 0 0 0 0 0 0 0 0 0 0 0 0 0 0 0 0 0 0 0 0 0 0 0 0 0 0 0 0 0 0 0 0 0 0 0 0 0 0 0 0 0 0
0 0 0 0 0 0 0 0 0 0 0 0 0 0 0 0 0 0 0 0 0 0 0 0 0 0 0 0 0 0 0 0 0 0 0 0 0 0 0 0 0 0 0
0 0 0 0 0 0 0 0 0 0 0 0 0 0 0 0 0 0 0 0 0 0 0 0 0 0 0 0 0 0 0 0 0 0 0 0 0 0 0 0 0 0 0
0 0 0 0 0 0 0 0 0 0 0 0 0 0 0 0 0 0 0 0 0 0 0 0 0 0 0 0 0 0 0 0 0 0 0 0 0 0 0 0 0 0 0
0 0 0 0 0 0 0 0 0 0 0 0 0 0 0 0 0 0 0 0 0 0 0 0 0 0 0 0 0 0 0 0 0 0 0 0 0 0 0 0 0 0 0
0 0 0 0 0 0 0 0 0 0 0 0 0 0 0 0 0 0 0 0 0 0 0 0 0 0 0 0 0 0 0 0 0 0 0 0 0 0 0 0 0 0 0
0 0 0 0 0 0 0 0 0 0 0 0 0 0 0 0 0 0 0 0 0 0 0 0 0 0 0 0 0 0 0 0 0 0 0 0 0 0 0 0 0 0 0
0 0 0 0 0 0 0 0 0 0 0 0 0 0 0 0 0 0 0 0 0 0 0 0 0 0 0 0 0 0 0 0 0 0 0 0 0 0 0 0 0 0 0
0 0 0 0 0 0 0 0 0 0 0 0 0 0 0 0 0 0 0 0 0 0 0 0 0 0 0 0 0 0 0 0 0 0 0 0 0 0 0 0 0 0 0
0 0 0 0 0 0 0 0 0 0 0 0 0 0 0 0 0 0 0 0 0 0 0 0 0 0 0 0 0 0 0 0 0 0 0 0 0 0 0 0 0 0 0
0 0 0 0 0 0 0 0 0 0 0 0 0 0 0 0 0 0 0 0 0 0 0 0 0 0 0 0 0 0 0 0 0 0 0 0 0 0 0 0 0 0 0
0 0 0 0 0 0 0 0 0 0 0 0 0 0 0 0 0 0 0 0 0 0 0 0 0 0 0 0 0 0 0 0 0 0 0 0 0 0 0 0 0 0 0
0 0 0 0 0 0 0 0 0 0 0 0 0 0 0 0 0 0 0 0 0 0 0 0 0 0 0 0 0 0 0 0 0 0 0 0 0 0 0 0 0 0 0
0 0 0 0 0 0 0 0 0 0 0 0 0 0 0 0 0 0 0 0 0 0 0 0 0 0 0 0 0 0 0 0 0 0 0 0 0 0 0 0 0 0 0
0 0 0 0 0 0 0 0 0 0 0 0 0 0 0 0 0 0 0 0 0 0 0 0 0 0 0 0 0 0 0 0 0 0 0 0 0 0 0 0 0 0 0
0 0 0 0 0 0 0 0 0 0 0 0 0 0 0 0 0 0 0 0 0 0 0 0 0 0 0 0 0 0 0 0 0 0 0 0 0 0 0 0 0 0 0
0 0 0 0 0 0 0 0 0 0 0 0 0 0 0 0 0 0 0 0 0 0 0 0 0 0 0 0 0 0 0 0 0 0 0 0 0 0 0 0 0 0 0
0 0 0 0 0 0 0 0 0 0 0 0 0 0 0 0 0 0 0 0 0 0 0 0 0 0 0 0 0 0 0 0 0 0 0 0 0 0 0 0 0 0 0
0 0 0 0 0 0 0 0 0 0 0 0 0 0 0 0 0 0 0 0 0 0 0 0 0 0 0 0 0 0 0 0 0 0 0 0 0 0 0 0 0 0 0
0 0 0 0 0 0 0 0 0 0 0 0 0 0 0 0 0 0 0 0 0 0 0 0 0 0 0 0 0 0 0 0 0 0 0 0 0 0 0 0 0 0 0
0 0 0 0 0 0 0 0 0 0 0 0 0 0 0 0 0 0 0 0 0 0 0 0 0 0 0 0 0 0 0 0 0 0 0 0 0 0 0 0 0 0 0
0 0 0 0 0 0 0 0 0 0 0 0 0 0 0 0 0 0 0 0 0 0 0 0 0 0 0 0 0 0 0 0 0 0 0 0 0 0 0 0 0 0 0
Wind_Speed
2 2 5 6 7 8 8 8 9 9 9 10 10 10 10 10 10 9 9 9 9 10 10 10 11 11 12 11 11 11 11 12 12 12 11 11 11 12 12 11 10 7 12
2 3 5 6 7 8 8 8 9 9 9 9 9 9 9 9 9 9 9 9 9 10 10 10 11 11 11 11 11 11 11 11 11 11 11 10 11 11 11 11 10 7 11
3 3 5 6 7 7 8 8 8 8 9 9 9 9 9 9 9 9 9 9 9 9 10 10 10 11 11 10 10 11 11 11 11 11 10 5 6 10 10 10 10 10 10
4 3 4 6 7 7 7 8 7 8 8 8 8 8 8 8 8 8 8 8 8 9 9 10 10 10 10 9 9 10 10 10 10 9 5 4 4 8 9 9 9 9 9
3 3 3 6 7 7 7 7 7 7 8 8 8 8 7 7 8 8 8 8 8 8 8 9 10 10 9 9 9 9 10 10 10 7 4 4 3 8 9 9 9 9 9
3 3 3 5 6 6 6 6 6 7 7 8 8 8 7 7 7 7 7 7 7 8 8 9 9 9 9 9 9 9 9 9 8 4 4 3 3 7 8 8 8 8 8
3 2 3 4 5 5 5 5 5 6 6 7 8 7 7 6 6 6 6 7 7 8 8 8 8 8 8 8 8 8 8 8 5 4 3 3 3 7 7 7 7 7 8
3 2 2 3 4 4 4 4 4 5 5 6 7 7 6 6 6 6 6 6 6 7 8 8 8 8 8 8 8 8 8 7 6 4 3 2 4 6 6 6 6 6 7
3 2 2 2 2 3 3 3 3 4 5 6 6 6 6 5 6 5 5 5 5 7 7 7 8 8 8 7 7 8 7 7 5 3 3 2 4 6 7 6 6 6 6
3 3 2 2 1 1 1 2 3 4 4 5 6 6 5 5 5 5 4 5 5 5 7 7 7 8 8 7 7 7 7 6 4 3 2 2 4 5 6 6 6 5 5
2 2 2 2 1 1 1 2 3 3 4 4 4 5 5 3 3 3 4 5 5 4 6 7 7 7 7 7 7 7 5 2 3 2 1 3 4 4 5 5 4 5 4
0 1 1 1 1 1 1 1 1 2 2 3 3 3 3 3 3 3 4 4 4 4 5 6 7 7 5 3 4 5 2 3 2 2 2 3 3 3 4 4 4 4 4
1 0 1 1 1 1 1 1 1 1 1 2 3 3 3 3 2 2 2 2 3 3 2 4 4 3 3 2 2 2 2 2 1 1 2 3 3 3 3 3 3 3 3
0 1 1 0 0 0 0 1 1 1 1 1 2 3 3 2 2 2 2 2 1 1 1 2 2 3 3 3 3 2 2 2 1 1 1 3 4 3 2 3 3 2 2
1 1 1 1 1 1 1 1 1 1 1 2 2 2 3 2 2 2 2 2 1 1 1 2 3 3 3 2 2 2 2 2 1 1 1 3 4 4 3 2 2 2 2
2 2 1 1 0 1 1 1 1 1 1 2 2 2 2 2 2 2 2 2 2 1 1 2 3 3 2 2 2 2 1 1 2 2 1 2 5 5 5 4 4 3 2
2 2 1 1 0 1 1 1 1 1 1 1 1 2 2 2 2 2 2 2 2 2 2 2 2 2 2 2 2 2 1 1 1 1 1 1 2 4 5 5 5 5 5
2 1 1 1 0 0 1 1 1 1 1 1 1 1 2 2 2 2 2 2 2 2 2 3 2 2 2 2 1 1 1 1 1 1 1 1 1 1 3 5 5 6 6
2 2 2 1 1 0 1 1 2 2 2 1 1 1 1 1 2 2 2 1 2 2 2 3 3 2 2 2 2 1 1 1 1 1 1 1 1 2 2 3 5 6 5
2 2 2 2 2 1 1 1 2 2 2 2 1 1 2 1 2 1 1 1 2 2 2 2 3 2 2 2 2 2 1 1 1 1 1 1 1 2 2 2 2 4 6
4 3 3 3 2 2 1 1 1 1 1 1 1 2 2 2 2 2 1 1 1 1 2 2 3 3 2 2 2 1 1 2 1 1 1 1 1 1 2 2 2 1 2
3 3 3 3 2 2 1 1 1 1 1 1 2 3 3 3 2 2 1 1 1 1 2 2 2 2 2 2 2 2 1 1 1 1 1 1 1 1 1 2 1 1 1
3 2 2 2 2 2 2 2 2 2 1 1 2 2 3 3 3 2 2 2 1 1 2 2 2 3 2 2 1 3 3 2 1 1 1 0 0 1 1 1 2 2 2
2 2 2 2 3 3 2 3 2 2 1 1 1 1 2 2 2 2 2 1 1 1 1 1 1 1 2 2 1 0 1 2 2 1 1 1 1 0 1 1 2 2 2
1 2 2 2 3 3 3 3 2 2 1 1 2 2 2 1 2 2 1 1 1 1 0 1 1 1 1 2 2 1 1 1 1 2 2 1 1 1 1 1 1 1 1
2 2 2 2 3 3 3 3 2 2 2 2 2 1 1 1 1 2 1 1 1 0 0 0 1 2 1 1 1 2 2 2 2 2 2 2 2 1 1 0 1 1 1
Wind_Direction
218 199 184 159 151 148 141 134 130 126 124 123 123 122 121 120 118 115 113 109 107 103 101 99 96 93 89 87 85 83 80 78 76 74 74 74 74 74 75 75 72 69 74
186 184 182 159 150 146 143 136 134 132 131 127 125 124 123 123 120 118 116 115 111 107 105 103 99 95 90 88 85 83 81 80 77 74 71 70 74 74 76 80 77 77 76
150 164 166 157 146 142 142 142 138 138 136 133 129 126 125 125 124 123 120 118 114 111 108 106 102 96 93 91 89 87 84 81 79 73 65 50 67 76 76 78 77 77 77
148 149 156 151 143 141 141 143 143 142 142 140 137 132 128 127 126 126 124 121 119 116 113 107 103 98 95 94 94 93 87 82 77 71 56 42 54 74 76 79 77 77 77
136 138 149 148 144 144 142 144 147 144 145 144 141 137 134 128 129 129 125 123 122 121 118 111 104 100 97 95 94 92 89 83 73 64 54 43 47 73 74 76 74 75 75
127 129 143 145 144 144 141 141 144 144 143 144 140 137 136 134 125 125 125 124 123 122 118 112 107 103 99 98 96 94 93 85 72 58 52 43 49 73 74 75 74 74 75
124 118 138 143 144 146 146 144 146 146 146 145 140 133 134 134 129 122 125 125 124 120 118 112 109 106 102 101 101 98 94 87 76 64 50 41 57 69 73 76 77 76 76
122 110 121 140 134 137 144 148 150 153 150 148 144 135 132 130 130 129 121 124 129 125 118 115 114 111 107 105 104 98 91 85 80 69 52 43 64 68 72 73 76 78 78
84 89 87 109 133 133 132 145 150 150 145 141 139 132 125 119 117 119 123 118 123 124 123 120 119 115 108 104 102 98 91 83 77 67 53 41 59 67 69 70 70 71 76
66 65 60 51 73 105 127 132 130 130 132 130 129 122 114 108 108 109 115 121 119 124 124 118 114 112 108 101 99 95 90 81 70 62 50 52 61 68 67 66 68 64 70
43 39 44 48 47 65 105 110 116 120 119 118 120 122 117 104 100 97 104 110 111 119 126 118 112 109 102 97 95 93 89 80 76 60 50 61 66 70 67 64 71 69 70
293 355 17 24 42 64 86 100 101 107 114 112 112 118 117 113 108 99 92 96 94 96 119 117 111 102 96 88 88 88 80 81 76 58 41 54 71 76 72 66 70 75 81
230 279 335 356 15 66 99 118 114 112 106 107 114 114 117 113 108 99 92 78 76 71 95 107 104 98 98 95 89 85 85 82 73 54 33 43 60 75 73 68 70 74 82
215 279 306 333 68 70 111 144 139 134 128 131 130 130 128 130 131 128 123 117 97 96 99 109 110 103 100 99 99 98 93 87 76 61 35 36 40 52 64 58 58 59 73
283 295 294 254 166 156 145 164 139 149 146 143 141 143 140 147 157 147 141 130 126 119 124 128 120 117 110 101 96 100 97 90 85 73 35 35 41 45 57 51 40 40 66
282 280 280 279 189 154 156 163 154 143 141 133 138 142 145 147 154 154 151 146 146 138 130 135 133 130 121 113 101 95 94 93 87 81 61 38 39 42 45 36 28 22 40
284 282 292 269 200 161 153 156 136 123 124 122 125 132 136 139 151 151 153 161 159 144 132 125 118 116 115 103 92 83 76 72 81 83 70 51 34 36 38 35 25 23 20
357 334 322 344 339 163 150 153 139 130 120 110 110 125 131 130 140 140 146 159 150 139 138 136 126 114 114 109 103 78 61 57 58 75 77 60 53 48 32 30 23 17 13
0 358 13 28 34 144 132 127 114 108 96 85 83 89 95 103 121 135 144 141 135 135 133 138 127 128 131 124 113 80 52 54 43 51 65 56 48 51 35 24 22 15 11
13 17 25 41 41 68 105 98 93 82 74 68 73 68 71 81 92 114 128 123 124 128 131 137 133 122 127 129 105 69 32 26 48 61 62 48 45 42 33 32 26 11 12
22 24 28 42 40 56 88 127 126 115 92 73 65 67 75 72 83 97 110 125 127 147 147 138 138 133 119 119 105 62 23 33 33 52 54 52 34 29 30 24 23 20 0
19 14 22 36 41 51 60 118 124 117 103 87 65 54 59 67 68 80 98 128 150 144 129 125 129 138 138 141 134 123 5 342 352 28 45 65 31 27 27 15 13 20 12
13 3 13 31 42 43 50 75 74 75 70 66 52 46 39 56 65 66 70 79 96 150 165 158 150 146 159 167 138 146 159 212 272 336 3 48 49 32 2 357 8 17 12
347 356 21 41 48 46 58 79 90 92 87 51 57 70 55 62 67 65 69 84 88 96 150 178 158 154 151 171 177 115 167 160 164 242 301 327 20 351 343 354 357 1 4
356 14 25 51 53 47 59 80 95 79 71 71 63 67 59 56 61 60 79 102 99 86 88 141 146 152 164 177 176 161 137 130 165 178 237 274 321 294 327 337 336 338 349
28 37 42 58 52 47 59 69 89 93 76 74 57 50 41 32 39 30 51 78 76 70 131 163 171 171 180 175 172 169 168 171 182 183 212 234 264 279 308 336 321 316 338